Satellite-Ground Cal/Val Site Overpasses Predictions

Prediction of Satellite NPP Overpassing Cal/Val Site: Antarctic Dome C

Ground Cal/Val Site Location: Latitude: -75.10, Longitude: 123.35; Satellite-Ground Site NADIR distance within 100 km.

Table of predicted overpasses for the next 14.0 days since TLE Epoch: 7/12/2013
Interval Starting Time Ending Time Minimum Distance Time Minimum Distance (km)
1 07/13/2013 14:54:25 07/13/2013 14:54:54 07/13/2013 14:54:39 22.52
2 07/14/2013 14:35:42 07/14/2013 14:35:57 07/14/2013 14:35:49 84.50
3 07/15/2013 07:37:14 07/15/2013 07:37:42 07/15/2013 07:37:28 31.80
4 07/16/2013 07:18:29 07/16/2013 07:18:47 07/16/2013 07:18:38 78.41
5 07/18/2013 15:00:42 07/18/2013 15:01:06 07/18/2013 15:00:54 58.98
6 07/19/2013 14:41:51 07/19/2013 14:42:16 07/19/2013 14:42:03 50.17
7 07/20/2013 07:43:31 07/20/2013 07:43:53 07/20/2013 07:43:42 66.53
8 07/21/2013 07:24:38 07/21/2013 07:25:05 07/21/2013 07:24:52 41.62
9 07/23/2013 15:07:04 07/23/2013 15:07:11 07/23/2013 15:07:07 96.15
10 07/24/2013 14:48:03 07/24/2013 14:48:32 07/24/2013 14:48
